Time,TemperatureF,DewpointF,PressureIn,WindDirection,WindDirectionDegrees,WindSpeedMPH,WindSpeedGustMPH,Humidity,HourlyPrecipIn,Conditions,Clouds,dailyrainin,SoftwareType,DateUTC
2013-05-21 00:11:00,60.3,58.0,29.89,NNW,337,0.0,2.0,93,0.00,,,0.00,weatherlink.com 1.10,2013-05-21 04:11:00,
2013-05-21 00:27:00,59.5,58.0,29.89,NNW,337,2.0,2.0,94,0.00,,,0.00,weatherlink.com 1.10,2013-05-21 04:27:00,
2013-05-21 00:42:00,59.2,58.0,29.88,NNW,337,0.0,1.0,94,0.00,,,0.00,weatherlink.com 1.10,2013-05-21 04:42:00,
2013-05-21 00:57:00,58.6,57.0,29.88,NNW,337,0.0,0.0,94,0.00,,,0.00,weatherlink.com 1.10,2013-05-21 04:57:00,
2013-05-21 01:12:00,59.0,57.0,29.87,NNW,337,0.0,2.0,94,0.00,,,0.00,weatherlink.com 1.10,2013-05-21 05:12:00,
2013-05-21 01:27:00,58.8,57.0,29.87,NNW,337,0.0,1.0,95,0.00,,,0.00,weatherlink.com 1.10,2013-05-21 05:27:00,
2013-05-21 01:42:00,58.6,57.0,29.86,NNW,337,0.0,2.0,95,0.00,,,0.00,weatherlink.com 1.10,2013-05-21 05:42:00,
2013-05-21 01:57:00,58.5,57.0,29.86,NNW,337,0.0,3.0,96,0.00,,,0.00,weatherlink.com 1.10,2013-05-21 05:57:00,
2013-05-21 02:12:00,58.4,57.0,29.86,NNW,337,1.0,2.0,96,0.00,,,0.00,weatherlink.com 1.10,2013-05-21 06:12:00,
2013-05-21 02:27:00,59.8,59.0,29.85,NW,315,0.0,3.0,97,0.00,,,0.00,weatherlink.com 1.10,2013-05-21 06:27:00,
2013-05-21 02:42:00,59.7,59.0,29.85,NW,313,1.0,2.0,96,0.00,,,0.00,weatherlink.com 1.10,2013-05-21 06:42:00,
2013-05-21 02:57:00,58.9,58.0,29.85,NW,315,0.0,3.0,96,0.00,,,0.00,weatherlink.com 1.10,2013-05-21 06:57:00,
2013-05-21 03:12:00,59.5,59.0,29.84,NW,315,2.0,4.0,97,0.00,,,0.00,weatherlink.com 1.10,2013-05-21 07:12:00,
2013-05-21 03:27:00,59.5,59.0,29.84,NW,315,2.0,3.0,97,0.00,,,0.00,weatherlink.com 1.10,2013-05-21 07:27:00,
2013-05-21 03:42:00,59.4,58.0,29.85,NW,315,2.0,3.0,96,0.00,,,0.00,weatherlink.com 1.10,2013-05-21 07:42:00,
2013-05-21 03:57:00,59.2,58.0,29.84,NW,315,1.0,2.0,97,0.00,,,0.00,weatherlink.com 1.10,2013-05-21 07:57:00,
2013-05-21 04:12:00,59.2,58.0,29.85,NW,315,1.0,3.0,97,0.00,,,0.00,weatherlink.com 1.10,2013-05-21 08:12:00,
2013-05-21 04:27:00,59.3,59.0,29.84,NW,315,1.0,2.0,97,0.00,,,0.00,weatherlink.com 1.10,2013-05-21 08:27:00,
2013-05-21 04:42:00,58.6,58.0,29.84,NW,315,2.0,2.0,96,0.00,,,0.00,weatherlink.com 1.10,2013-05-21 08:42:00,
2013-05-21 04:57:00,58.7,58.0,29.83,NW,315,1.0,2.0,97,0.00,,,0.00,weatherlink.com 1.10,2013-05-21 08:57:00,
2013-05-21 05:12:00,57.9,57.0,29.83,NW,315,0.0,3.0,97,0.00,,,0.00,weatherlink.com 1.10,2013-05-21 09:12:00,
2013-05-21 05:27:00,57.9,57.0,29.82,NW,315,0.0,3.0,97,0.00,,,0.00,weatherlink.com 1.10,2013-05-21 09:27:00,
2013-05-21 05:42:00,58.0,57.0,29.83,NW,315,1.0,2.0,97,0.00,,,0.00,weatherlink.com 1.10,2013-05-21 09:42:00,
2013-05-21 05:57:00,58.6,58.0,29.83,NW,315,1.0,3.0,98,0.00,,,0.00,weatherlink.com 1.10,2013-05-21 09:57:00,
2013-05-21 06:12:00,59.6,59.0,29.84,North,5,2.0,4.0,98,0.00,,,0.00,weatherlink.com 1.10,2013-05-21 10:12:00,
2013-05-21 06:27:00,60.1,59.0,29.84,North,10,2.0,4.0,97,0.00,,,0.00,weatherlink.com 1.10,2013-05-21 10:27:00,
2013-05-21 06:42:00,61.9,60.0,29.84,NE,46,2.0,5.0,94,0.00,,,0.00,weatherlink.com 1.10,2013-05-21 10:42:00,
2013-05-21 06:57:00,62.9,61.0,29.84,NE,42,2.0,4.0,92,0.00,,,0.00,weatherlink.com 1.10,2013-05-21 10:57:00,
2013-05-21 07:12:00,63.4,61.0,29.84,NNE,21,3.0,5.0,92,0.00,,,0.00,weatherlink.com 1.10,2013-05-21 11:12:00,
2013-05-21 07:27:00,64.2,62.0,29.83,NNE,24,0.0,5.0,91,0.00,,,0.00,weatherlink.com 1.10,2013-05-21 11:27:00,
2013-05-21 07:42:00,65.0,62.0,29.85,NNE,26,2.0,5.0,90,0.00,,,0.00,weatherlink.com 1.10,2013-05-21 11:42:00,
2013-05-21 07:57:00,66.2,63.0,29.85,NE,42,2.0,10.0,88,0.00,,,0.00,weatherlink.com 1.10,2013-05-21 11:57:00,
2013-05-21 08:12:00,67.1,63.0,29.84,East,89,1.0,6.0,87,0.00,,,0.00,weatherlink.com 1.10,2013-05-21 12:12:00,
2013-05-21 08:27:00,68.5,64.0,29.84,ESE,106,2.0,4.0,85,0.00,,,0.00,weatherlink.com 1.10,2013-05-21 12:27:00,
2013-05-21 08:43:00,69.4,65.0,29.84,NNE,28,2.0,6.0,85,0.00,,,0.00,weatherlink.com 1.10,2013-05-21 12:43:00,
2013-05-21 08:58:00,70.3,65.0,29.84,NNE,26,1.0,9.0,83,0.00,,,0.00,weatherlink.com 1.10,2013-05-21 12:58:00,
2013-05-21 09:13:00,71.0,64.0,29.84,NE,49,2.0,11.0,79,0.00,,,0.00,weatherlink.com 1.10,2013-05-21 13:13:00,
2013-05-21 09:28:00,71.9,65.0,29.83,East,83,3.0,8.0,78,0.00,,,0.00,weatherlink.com 1.10,2013-05-21 13:28:00,
2013-05-21 09:43:00,72.6,65.0,29.83,North,5,6.0,12.0,77,0.00,,,0.00,weatherlink.com 1.10,2013-05-21 13:43:00,
2013-05-21 09:58:00,73.6,65.0,29.83,WNW,297,3.0,15.0,74,0.00,,,0.00,weatherlink.com 1.10,2013-05-21 13:58:00,
2013-05-21 10:13:00,74.0,65.0,29.82,North,355,7.0,12.0,74,0.00,,,0.00,weatherlink.com 1.10,2013-05-21 14:13:00,
2013-05-21 10:28:00,74.7,65.0,29.81,WNW,289,2.0,11.0,72,0.00,,,0.00,weatherlink.com 1.10,2013-05-21 14:28:00,
2013-05-21 10:43:00,75.2,66.0,29.81,NE,44,3.0,9.0,72,0.00,,,0.00,weatherlink.com 1.10,2013-05-21 14:43:00,
2013-05-21 10:58:00,74.8,65.0,29.80,North,360,4.0,12.0,72,0.00,,,0.00,weatherlink.com 1.10,2013-05-21 14:58:00,
2013-05-21 11:13:00,74.8,65.0,29.80,North,360,4.0,9.0,71,0.00,,,0.00,weatherlink.com 1.10,2013-05-21 15:13:00,
2013-05-21 11:28:00,75.3,64.0,29.80,North,5,6.0,8.0,69,0.00,,,0.00,weatherlink.com 1.10,2013-05-21 15:28:00,
2013-05-21 11:43:00,76.9,65.0,29.79,North,9,0.0,9.0,67,0.00,,,0.00,weatherlink.com 1.10,2013-05-21 15:43:00,
2013-05-21 11:58:00,77.3,65.0,29.79,WNW,284,6.0,8.0,67,0.00,,,0.00,weatherlink.com 1.10,2013-05-21 15:58:00,
2013-05-21 12:13:00,78.0,63.0,29.78,West,269,5.0,15.0,61,0.00,,,0.00,weatherlink.com 1.10,2013-05-21 16:13:00,
2013-05-21 12:28:00,78.2,63.0,29.78,NE,44,6.0,6.0,60,0.00,,,0.00,weatherlink.com 1.10,2013-05-21 16:28:00,
2013-05-21 12:43:00,78.3,62.0,29.78,East,84,5.0,5.0,58,0.00,,,0.00,weatherlink.com 1.10,2013-05-21 16:43:00,
2013-05-21 12:58:00,79.3,63.0,29.77,WSW,245,7.0,7.0,58,0.00,,,0.00,weatherlink.com 1.10,2013-05-21 16:58:00,
2013-05-21 13:13:00,80.4,63.0,29.76,SW,227,6.0,10.0,55,0.00,,,0.00,weatherlink.com 1.10,2013-05-21 17:13:00,
2013-05-21 13:28:00,80.1,60.0,29.76,South,172,5.0,9.0,50,0.00,,,0.00,weatherlink.com 1.10,2013-05-21 17:28:00,
2013-05-21 13:44:00,80.3,65.0,29.75,South,180,3.0,7.0,59,0.00,,,0.00,weatherlink.com 1.10,2013-05-21 17:44:00,
2013-05-21 13:59:00,81.2,60.0,29.75,South,174,4.0,7.0,49,0.00,,,0.00,weatherlink.com 1.10,2013-05-21 17:59:00,
2013-05-21 14:14:00,79.2,66.0,29.75,WSW,250,5.0,6.0,64,0.00,,,0.00,weatherlink.com 1.10,2013-05-21 18:14:00,
2013-05-21 14:29:00,79.2,68.0,29.75,SSW,198,3.0,8.0,69,0.00,,,0.00,weatherlink.com 1.10,2013-05-21 18:29:00,
2013-05-21 14:44:00,81.0,66.0,29.74,West,264,4.0,10.0,60,0.00,,,0.00,weatherlink.com 1.10,2013-05-21 18:44:00,
2013-05-21 14:59:00,81.1,68.0,29.74,West,272,4.0,7.0,65,0.00,,,0.00,weatherlink.com 1.10,2013-05-21 18:59:00,
2013-05-21 15:14:00,81.6,63.0,29.73,SSE,162,2.0,7.0,54,0.00,,,0.00,weatherlink.com 1.10,2013-05-21 19:14:00,
2013-05-21 15:29:00,82.9,58.0,29.71,SW,214,6.0,12.0,43,0.00,,,0.00,weatherlink.com 1.10,2013-05-21 19:29:00,
2013-05-21 15:44:00,83.0,58.0,29.70,WSW,250,3.0,9.0,43,0.00,,,0.00,weatherlink.com 1.10,2013-05-21 19:44:00,
2013-05-21 15:59:00,83.5,60.0,29.71,North,351,0.0,8.0,45,0.00,,,0.00,weatherlink.com 1.10,2013-05-21 19:59:00,
2013-05-21 16:14:00,83.6,57.0,29.71,SW,231,5.0,9.0,41,0.00,,,0.00,weatherlink.com 1.10,2013-05-21 20:14:00,
2013-05-21 16:29:00,81.7,58.0,29.71,North,355,3.0,5.0,44,0.00,,,0.00,weatherlink.com 1.10,2013-05-21 20:29:00,
2013-05-21 16:44:00,83.2,58.0,29.70,WSW,251,1.0,6.0,42,0.00,,,0.00,weatherlink.com 1.10,2013-05-21 20:44:00,
2013-05-21 16:59:00,81.0,64.0,29.70,WSW,251,6.0,10.0,57,0.00,,,0.00,weatherlink.com 1.10,2013-05-21 20:59:00,
2013-05-21 17:14:00,81.8,60.0,29.71,SSW,196,5.0,7.0,47,0.00,,,0.00,weatherlink.com 1.10,2013-05-21 21:14:00,
2013-05-21 17:29:00,76.5,63.0,29.71,NNW,348,2.0,8.0,64,0.00,,,0.00,weatherlink.com 1.10,2013-05-21 21:29:00,
2013-05-21 17:44:00,76.2,64.0,29.70,SSW,200,5.0,5.0,66,0.00,,,0.00,weatherlink.com 1.10,2013-05-21 21:44:00,
2013-05-21 17:59:00,76.2,65.0,29.71,West,271,2.0,5.0,68,0.00,,,0.00,weatherlink.com 1.10,2013-05-21 21:59:00,
2013-05-21 18:14:00,74.9,65.0,29.71,NW,319,5.0,5.0,70,0.00,,,0.00,weatherlink.com 1.10,2013-05-21 22:14:00,
2013-05-21 18:29:00,73.7,65.0,29.70,SSW,205,4.0,4.0,74,0.00,,,0.00,weatherlink.com 1.10,2013-05-21 22:29:00,
2013-05-21 18:44:00,72.8,64.0,29.70,SW,215,1.0,7.0,75,0.00,,,0.00,weatherlink.com 1.10,2013-05-21 22:44:00,
2013-05-21 18:59:00,71.8,65.0,29.71,SSW,200,2.0,5.0,78,0.00,,,0.00,weatherlink.com 1.10,2013-05-21 22:59:00,
2013-05-21 19:14:00,72.0,65.0,29.71,SW,222,3.0,6.0,79,0.00,,,0.00,weatherlink.com 1.10,2013-05-21 23:14:00,
2013-05-21 19:29:00,71.8,65.0,29.71,South,190,3.0,8.0,79,0.00,,,0.00,weatherlink.com 1.10,2013-05-21 23:29:00,
2013-05-21 19:44:00,70.6,65.0,29.71,SSW,197,1.0,5.0,81,0.00,,,0.00,weatherlink.com 1.10,2013-05-21 23:44:00,
2013-05-21 19:59:00,69.5,64.0,29.71,SSW,196,2.0,4.0,83,0.00,,,0.00,weatherlink.com 1.10,2013-05-21 23:59:00,
2013-05-21 20:14:00,68.7,63.0,29.71,South,185,1.0,4.0,83,0.00,,,0.00,weatherlink.com 1.10,2013-05-22 00:14:00,
2013-05-21 20:29:00,68.0,63.0,29.70,SE,136,1.0,2.0,85,0.00,,,0.00,weatherlink.com 1.10,2013-05-22 00:29:00,
2013-05-21 20:44:00,67.7,64.0,29.71,SSE,148,2.0,4.0,87,0.00,,,0.00,weatherlink.com 1.10,2013-05-22 00:44:00,
2013-05-21 20:59:00,68.0,64.0,29.71,South,182,1.0,5.0,88,0.00,,,0.00,weatherlink.com 1.10,2013-05-22 00:59:00,
2013-05-21 21:14:00,68.7,65.0,29.70,SSE,160,4.0,10.0,87,0.00,,,0.00,weatherlink.com 1.10,2013-05-22 01:14:00,
2013-05-21 21:29:00,69.6,65.0,29.70,SW,224,1.0,7.0,85,0.00,,,0.00,weatherlink.com 1.10,2013-05-22 01:29:00,
2013-05-21 21:44:00,70.4,65.0,29.69,SE,143,5.0,9.0,83,0.00,,,0.00,weatherlink.com 1.10,2013-05-22 01:44:00,
2013-05-21 21:59:00,70.8,65.0,29.70,SW,228,1.0,10.0,83,0.00,,,0.00,weatherlink.com 1.10,2013-05-22 01:59:00,
2013-05-21 22:14:00,70.2,65.0,29.70,SSW,212,1.0,6.0,83,0.00,,,0.00,weatherlink.com 1.10,2013-05-22 02:14:00,
2013-05-21 22:29:00,69.7,65.0,29.70,SE,139,2.0,4.0,84,0.00,,,0.00,weatherlink.com 1.10,2013-05-22 02:29:00,
2013-05-21 22:44:00,70.4,65.0,29.71,South,175,1.0,10.0,83,0.00,,,0.00,weatherlink.com 1.10,2013-05-22 02:44:00,
2013-05-21 22:59:00,70.7,65.0,29.70,SW,219,3.0,14.0,82,0.00,,,0.00,weatherlink.com 1.10,2013-05-22 02:59:00,
2013-05-21 23:14:00,70.1,65.0,29.70,ESE,113,3.0,6.0,83,0.00,,,0.00,weatherlink.com 1.10,2013-05-22 03:14:00,
2013-05-21 23:29:00,69.1,65.0,29.70,ESE,123,0.0,2.0,85,0.00,,,0.00,weatherlink.com 1.10,2013-05-22 03:29:00,
2013-05-21 23:44:00,68.2,64.0,29.71,SE,136,1.0,2.0,86,0.00,,,0.00,weatherlink.com 1.10,2013-05-22 03:44:00,
2013-05-21 23:59:00,67.9,64.0,29.71,SE,136,1.0,3.0,88,0.00,,,0.00,weatherlink.com 1.10,2013-05-22 03:59:00,